Darstellungsparameter: Aktuell verwendete Einstellungen:
Skalierung der Graphiken ... ?
xyx+y,   Skalierungsfaktor:      Skalierung: Modus: x, Faktor: 1
Darstellungszeitraum ... ?
Vom - - bis: - -   Zeitraum: 26.02.2003 - 26.02.2003
Min/Max/Avg-Anzeige ... ?
Zeige MMA aktuell
Zeige MMA Monat
Zeige MMA alles
Zeige --A aktuell
Zeige --A Monat
Zeige --A alles
Keine MMA-Anzeige
MMA:
Minimum Maximum Average (ber die Originaldaten)
MMA-Basis: 23.02.2003 - 30.09.2000
Quicknavigation für Darstellung... ?
Tage:      1T, 2T, 3T, 5T -1T -2T -3T -5T +1T +2T +3T +5T
Wochen: 1W, 2W, 3W -1W -2W -3W +1W +2W +3W
Monate: 1M, 3M, 6M -1M -3M -6M +1M +3M +6M
Jahre:    1J, 3J, 5J, 10J -1J -3J -5J -10J +1J +3J +5J +10J
Nutze für die Darstellung ... ?
Originaldaten oder Mittelwerte auf ...
Stundenbasis Tagesbasis Wochenbasis
Monatsbasis Jahresbasis      Datenbasis: Original-Daten
Darstellen als:
Statistik (Auto) Statistik J:M      Darstellung:
Zur Graphik,    zurück zur Übersicht aller Sensoren.
 
Tabellarische Datenbersicht: ?
 
Sensor: Nr:Datum:Temp:Abs-Feuchte:Windchill:Wind:
Aussen-T/F 1 26-02-2003 00:04:10 -2 C 2.78 g/m*3 -2 C 0 km/h
2 26-02-2003 00:10:10 -2.1 C 2.8 g/m*3 -2.1 C 0 km/h
3 26-02-2003 00:16:10 -2.1 C 2.85 g/m*3 -2.1 C 0 km/h
4 26-02-2003 00:22:10 -2.2 C 2.78 g/m*3 -2.2 C 0 km/h
5 26-02-2003 00:28:10 -2.3 C 2.81 g/m*3 -2.3 C 0 km/h
6 26-02-2003 00:34:10 -2.2 C 2.87 g/m*3 -2.2 C 0 km/h
7 26-02-2003 00:40:10 -2.3 C 2.85 g/m*3 -2.3 C 0 km/h
8 26-02-2003 00:46:10 -2.3 C 2.85 g/m*3 -2.3 C 0 km/h
9 26-02-2003 00:52:10 -2.4 C 2.83 g/m*3 -2.4 C 0 km/h
10 26-02-2003 00:58:10 -2.5 C 2.81 g/m*3 -2.5 C 0 km/h
11 26-02-2003 01:04:10 -2.6 C 2.83 g/m*3 -2.6 C 0 km/h
12 26-02-2003 01:10:10 -2.7 C 2.81 g/m*3 -2.7 C 0 km/h
13 26-02-2003 01:16:10 -2.8 C 2.79 g/m*3 -2.8 C 0 km/h
14 26-02-2003 01:22:10 -2.9 C 2.77 g/m*3 -2.9 C 0 km/h
15 26-02-2003 01:28:10 -2.7 C 2.81 g/m*3 -2.7 C 0 km/h
16 26-02-2003 01:34:10 -2.7 C 2.85 g/m*3 -2.7 C 0 km/h
17 26-02-2003 01:40:10 -2.8 C 2.83 g/m*3 -2.8 C 0 km/h
18 26-02-2003 01:46:10 -2.9 C 2.81 g/m*3 -2.9 C 0 km/h
19 26-02-2003 01:52:10 -3 C 2.79 g/m*3 -3 C 0 km/h
20 26-02-2003 01:58:10 -3 C 2.79 g/m*3 -3 C 0 km/h
21 26-02-2003 02:04:10 -2.7 C 2.85 g/m*3 -2.7 C 0 km/h
22 26-02-2003 02:10:10 -2.8 C 2.83 g/m*3 -2.8 C 0 km/h
23 26-02-2003 02:16:10 -3 C 2.79 g/m*3 -3 C 0 km/h
24 26-02-2003 02:22:10 -3.1 C 2.73 g/m*3 -3.1 C 0 km/h
25 26-02-2003 02:28:10 -3.3 C 2.69 g/m*3 -3.3 C 0 km/h
Sensor: Nr:Datum:Temp:Abs-Feuchte:Windchill:Wind:
Aussen-T/F 26 26-02-2003 02:34:10 -3.4 C 2.67 g/m*3 -3.4 C 0 km/h
27 26-02-2003 02:40:10 -3.3 C 2.73 g/m*3 -3.3 C 0 km/h
28 26-02-2003 02:46:10 -3.4 C 2.71 g/m*3 -3.4 C 0 km/h
29 26-02-2003 02:52:10 -3.4 C 2.71 g/m*3 -3.4 C 0 km/h
30 26-02-2003 02:58:10 -3.6 C 2.67 g/m*3 -3.6 C 0 km/h
31 26-02-2003 03:04:10 -3.5 C 2.69 g/m*3 -3.5 C 0 km/h
32 26-02-2003 03:10:10 -3.6 C 2.71 g/m*3 -3.6 C 0 km/h
33 26-02-2003 03:16:10 -3.6 C 2.71 g/m*3 -3.6 C 0 km/h
34 26-02-2003 03:22:10 -3.7 C 2.69 g/m*3 -3.7 C 0 km/h
35 26-02-2003 03:28:10 -3.8 C 2.67 g/m*3 -3.8 C 0 km/h
36 26-02-2003 03:34:10 -3.8 C 2.71 g/m*3 -3.8 C 0 km/h
37 26-02-2003 03:40:10 -3.8 C 2.71 g/m*3 -3.8 C 0 km/h
38 26-02-2003 03:46:10 -3.8 C 2.71 g/m*3 -3.8 C 0 km/h
39 26-02-2003 03:52:10 -3.8 C 2.71 g/m*3 -3.8 C 0 km/h
40 26-02-2003 03:58:10 -3.8 C 2.71 g/m*3 -3.8 C 0 km/h
41 26-02-2003 04:04:10 -3.9 C 2.65 g/m*3 -3.9 C 0 km/h
42 26-02-2003 04:10:10 -3.9 C 2.65 g/m*3 -3.9 C 0 km/h
43 26-02-2003 04:16:10 -3.9 C 2.65 g/m*3 -3.9 C 0 km/h
44 26-02-2003 04:22:10 -3.8 C 2.71 g/m*3 -3.8 C 0 km/h
45 26-02-2003 04:28:10 -3.6 C 2.71 g/m*3 -3.6 C 0 km/h
46 26-02-2003 04:34:10 -3.7 C 2.69 g/m*3 -3.7 C 0 km/h
47 26-02-2003 04:40:10 -3.8 C 2.67 g/m*3 -3.8 C 0 km/h
48 26-02-2003 04:46:10 -3.7 C 2.69 g/m*3 -3.7 C 0 km/h
49 26-02-2003 04:52:10 -3.8 C 2.67 g/m*3 -3.8 C 0 km/h
50 26-02-2003 04:58:10 -3.9 C 2.65 g/m*3 -3.9 C 0 km/h
Sensor: Nr:Datum:Temp:Abs-Feuchte:Windchill:Wind:
Aussen-T/F 51 26-02-2003 05:04:10 -3.9 C 2.69 g/m*3 -3.9 C 0 km/h
52 26-02-2003 05:10:10 -4 C 2.63 g/m*3 -4 C 0 km/h
53 26-02-2003 05:16:10 -4.1 C 2.62 g/m*3 -4.1 C 0 km/h
54 26-02-2003 05:22:10 -4.1 C 2.65 g/m*3 -4.1 C 0 km/h
55 26-02-2003 05:28:10 -4.1 C 2.65 g/m*3 -4.1 C 0 km/h
56 26-02-2003 05:34:10 -4.1 C 2.69 g/m*3 -4.1 C 0 km/h
57 26-02-2003 05:40:10 -4.2 C 2.63 g/m*3 -4.2 C 0 km/h
58 26-02-2003 05:46:10 -4.2 C 2.67 g/m*3 -4.2 C 0 km/h
59 26-02-2003 05:52:10 -4.3 C 2.61 g/m*3 -4.3 C 0 km/h
60 26-02-2003 05:58:10 -4.3 C 2.61 g/m*3 -4.3 C 0 km/h
61 26-02-2003 06:04:10 -4.2 C 2.67 g/m*3 -4.2 C 0 km/h
62 26-02-2003 06:10:10 -4.2 C 2.63 g/m*3 -4.2 C 0 km/h
63 26-02-2003 06:16:10 -4.2 C 2.67 g/m*3 -4.2 C 0 km/h
64 26-02-2003 06:22:10 -4.2 C 2.67 g/m*3 -4.2 C 0 km/h
65 26-02-2003 06:28:10 -4.1 C 2.69 g/m*3 -4.1 C 0 km/h
66 26-02-2003 06:34:10 -4 C 2.71 g/m*3 -4 C 0 km/h
67 26-02-2003 06:40:10 -4.2 C 2.63 g/m*3 -4.2 C 0 km/h
68 26-02-2003 06:46:10 -4.4 C 2.6 g/m*3 -4.4 C 0 km/h
69 26-02-2003 06:52:10 -4.4 C 2.6 g/m*3 -4.4 C 0 km/h
70 26-02-2003 06:58:10 -4.7 C 2.54 g/m*3 -4.7 C 0 km/h
71 26-02-2003 07:04:10 -4.7 C 2.54 g/m*3 -4.7 C 0 km/h
72 26-02-2003 07:10:10 -4.8 C 2.56 g/m*3 -4.8 C 0 km/h
73 26-02-2003 07:16:10 -4.7 C 2.57 g/m*3 -4.7 C 0 km/h
74 26-02-2003 07:22:10 -4.8 C 2.56 g/m*3 -4.8 C 0 km/h
75 26-02-2003 07:28:10 -4.8 C 2.56 g/m*3 -4.8 C 0 km/h
Sensor: Nr:Datum:Temp:Abs-Feuchte:Windchill:Wind:
Aussen-T/F 76 26-02-2003 07:34:10 -4.8 C 2.59 g/m*3 -4.8 C 0 km/h
77 26-02-2003 07:40:10 -4.8 C 2.59 g/m*3 -4.8 C 0 km/h
78 26-02-2003 07:46:10 -4.6 C 2.66 g/m*3 -4.6 C 0 km/h
79 26-02-2003 07:52:10 -4.4 C 2.7 g/m*3 -4.4 C 0 km/h
80 26-02-2003 07:58:10 -4.4 C 2.7 g/m*3 -4.4 C 0 km/h
81 26-02-2003 08:04:10 -4.4 C 2.7 g/m*3 -4.4 C 0 km/h
82 26-02-2003 08:10:10 -4.4 C 2.7 g/m*3 -4.4 C 0 km/h
83 26-02-2003 08:16:10 -4.4 C 2.67 g/m*3 -4.4 C 0 km/h
84 26-02-2003 08:22:10 -4.3 C 2.69 g/m*3 -4.3 C 0 km/h
85 26-02-2003 08:28:10 -4.3 C 2.69 g/m*3 -4.3 C 0 km/h
86 26-02-2003 08:34:10 -4.2 C 2.7 g/m*3 -4.2 C 0 km/h
87 26-02-2003 08:40:10 -4 C 2.74 g/m*3 -4 C 0 km/h
88 26-02-2003 08:46:10 -3.8 C 2.78 g/m*3 -3.8 C 0 km/h
89 26-02-2003 08:52:10 -3.6 C 2.82 g/m*3 -3.6 C 0 km/h
90 26-02-2003 08:58:10 -3.4 C 2.86 g/m*3 -3.4 C 0 km/h
91 26-02-2003 09:04:10 -3.2 C 2.87 g/m*3 -3.2 C 0 km/h
92 26-02-2003 09:10:10 -2.8 C 2.87 g/m*3 -2.8 C 0 km/h
93 26-02-2003 09:16:10 -2.5 C 2.89 g/m*3 -2.5 C 0 km/h
94 26-02-2003 09:22:10 -2.2 C 2.91 g/m*3 -2.2 C 0 km/h
95 26-02-2003 09:28:10 -1.8 C 2.95 g/m*3 -1.8 C 0 km/h
96 26-02-2003 09:34:10 -1.8 C 2.91 g/m*3 -1.8 C 0 km/h
97 26-02-2003 09:40:10 -1.3 C 3.01 g/m*3 -1.3 C 0 km/h
98 26-02-2003 09:46:10 -0.9 C 3.1 g/m*3 -0.9 C 0 km/h
99 26-02-2003 09:52:10 -0.9 C 3 g/m*3 -0.9 C 0 km/h
100 26-02-2003 09:58:10 -0.9 C 3 g/m*3 -0.9 C 0 km/h
Sensor: Nr:Datum:Temp:Abs-Feuchte:Windchill:Wind:
Aussen-T/F 101 26-02-2003 10:04:10 -0.8 C 3.07 g/m*3 -0.8 C 0 km/h
102 26-02-2003 10:10:10 -0.6 C 3.11 g/m*3 -0.6 C 0 km/h
103 26-02-2003 10:16:10 -0.2 C 3.15 g/m*3 -0.2 C 0 km/h
104 26-02-2003 10:22:10 -0.2 C 3.11 g/m*3 -0.2 C 0 km/h
105 26-02-2003 10:28:10 -0.1 C 3.13 g/m*3 -0.1 C 0 km/h
106 26-02-2003 10:34:10 -0.2 C 3.11 g/m*3 -0.2 C 0 km/h
107 26-02-2003 10:40:10 0.4 C 3.19 g/m*3 0.4 C 0 km/h
108 26-02-2003 10:46:10 0.4 C 3.19 g/m*3 0.4 C 0 km/h
109 26-02-2003 10:52:10 0.3 C 3.17 g/m*3 0.3 C 0 km/h
110 26-02-2003 10:58:10 0.4 C 3.24 g/m*3 0.4 C 0 km/h
111 26-02-2003 11:04:10 0.6 C 3.23 g/m*3 0.6 C 0 km/h
112 26-02-2003 11:10:10 0.8 C 3.28 g/m*3 0.8 C 0 km/h
113 26-02-2003 11:16:10 1 C 3.17 g/m*3 1 C 0 km/h
114 26-02-2003 11:22:10 0.8 C 3.17 g/m*3 0.8 C 0 km/h
115 26-02-2003 11:28:10 0.8 C 3.17 g/m*3 0.8 C 0 km/h
116 26-02-2003 11:34:10 1 C 3.17 g/m*3 1 C 0 km/h
117 26-02-2003 11:40:10 1.2 C 3.26 g/m*3 1.2 C 0 km/h
118 26-02-2003 11:46:10 1.2 C 3.26 g/m*3 1.2 C 0 km/h
119 26-02-2003 11:52:10 1.1 C 3.34 g/m*3 1.1 C 0 km/h
120 26-02-2003 11:58:10 1.1 C 3.34 g/m*3 1.1 C 0 km/h
121 26-02-2003 12:04:10 1.2 C 3.37 g/m*3 1.2 C 0 km/h
122 26-02-2003 12:10:10 1.6 C 3.41 g/m*3 1.6 C 0 km/h
123 26-02-2003 12:16:10 2.1 C 3.36 g/m*3 2.1 C 0 km/h
124 26-02-2003 12:22:10 2.4 C 3.43 g/m*3 2.4 C 0 km/h
125 26-02-2003 12:28:10 2.6 C 3.41 g/m*3 2.6 C 0 km/h
Sensor: Nr:Datum:Temp:Abs-Feuchte:Windchill:Wind:
Aussen-T/F 126 26-02-2003 12:34:10 2.7 C 3.38 g/m*3 2.7 C 0 km/h
127 26-02-2003 12:40:10 2.7 C 3.38 g/m*3 2.7 C 0 km/h
128 26-02-2003 12:46:10 2.8 C 3.46 g/m*3 2.8 C 0 km/h
129 26-02-2003 12:52:10 3.3 C 3.58 g/m*3 3.3 C 0 km/h
130 26-02-2003 12:58:10 3.7 C 3.55 g/m*3 3.7 C 0 km/h
131 26-02-2003 13:04:10 4 C 3.5 g/m*3 4 C 0 km/h
132 26-02-2003 13:10:10 4.2 C 3.48 g/m*3 4.2 C 0 km/h
133 26-02-2003 13:16:10 4.1 C 3.46 g/m*3 4.1 C 0 km/h
134 26-02-2003 13:22:10 4.4 C 3.46 g/m*3 4.4 C 0 km/h
135 26-02-2003 13:28:10 4.5 C 3.42 g/m*3 4.5 C 0 km/h
136 26-02-2003 13:34:10 4.5 C 3.35 g/m*3 4.5 C 0 km/h
137 26-02-2003 13:40:10 4.7 C 3.46 g/m*3 4.7 C 0 km/h
138 26-02-2003 13:46:10 5.2 C 3.51 g/m*3 5.2 C 0 km/h
139 26-02-2003 13:52:10 5.4 C 3.56 g/m*3 5.4 C 0 km/h
140 26-02-2003 13:58:10 5.7 C 3.56 g/m*3 5.7 C 0 km/h
141 26-02-2003 14:04:10 5.9 C 3.61 g/m*3 5.9 C 0 km/h
142 26-02-2003 14:08:10 5.9 C 3.61 g/m*3 5.9 C 0 km/h
143 26-02-2003 14:10:10 6.3 C 3.63 g/m*3 6.3 C 0 km/h
144 26-02-2003 14:14:10 6.3 C 3.63 g/m*3 6.3 C 0 km/h
145 26-02-2003 14:16:10 6.6 C 3.7 g/m*3 6.6 C 0 km/h
146 26-02-2003 14:20:10 6.6 C 3.7 g/m*3 6.6 C 0 km/h
147 26-02-2003 14:22:10 6.5 C 3.67 g/m*3 6.5 C 0 km/h
148 26-02-2003 14:26:10 6.5 C 3.67 g/m*3 6.5 C 0 km/h
149 26-02-2003 14:28:10 6.6 C 3.7 g/m*3 6.6 C 0 km/h
150 26-02-2003 14:32:10 6.6 C 3.7 g/m*3 6.6 C 0 km/h
Sensor: Nr:Datum:Temp:Abs-Feuchte:Windchill:Wind:
Aussen-T/F 151 26-02-2003 14:34:10 6.4 C 3.65 g/m*3 6.4 C 0 km/h
152 26-02-2003 14:38:10 6.4 C 3.65 g/m*3 6.4 C 0 km/h
153 26-02-2003 14:40:10 6.4 C 3.58 g/m*3 6.4 C 0 km/h
154 26-02-2003 14:44:10 6.4 C 3.58 g/m*3 6.4 C 0 km/h
155 26-02-2003 14:46:10 6.4 C 3.58 g/m*3 6.4 C 0 km/h
156 26-02-2003 14:50:10 6.4 C 3.58 g/m*3 6.4 C 0 km/h
157 26-02-2003 14:52:10 6.4 C 3.58 g/m*3 6.4 C 0 km/h
158 26-02-2003 14:56:10 6.4 C 3.58 g/m*3 6.4 C 0 km/h
159 26-02-2003 14:58:10 6.5 C 3.52 g/m*3 6.5 C 0 km/h
160 26-02-2003 15:02:10 6.5 C 3.52 g/m*3 6.5 C 0 km/h
161 26-02-2003 15:04:10 6.4 C 3.5 g/m*3 6.4 C 0 km/h
162 26-02-2003 15:08:10 6.4 C 3.5 g/m*3 6.4 C 0 km/h
163 26-02-2003 15:10:10 7.3 C 3.56 g/m*3 7.3 C 0 km/h
164 26-02-2003 15:14:10 7.3 C 3.56 g/m*3 7.3 C 0 km/h
165 26-02-2003 15:16:10 7.3 C 3.56 g/m*3 7.3 C 0 km/h
166 26-02-2003 15:20:10 7.3 C 3.56 g/m*3 7.3 C 0 km/h
167 26-02-2003 15:22:10 7.5 C 3.6 g/m*3 7.5 C 0 km/h
168 26-02-2003 15:26:10 7.5 C 3.6 g/m*3 7.5 C 0 km/h
169 26-02-2003 15:28:10 7.8 C 3.67 g/m*3 7.8 C 0 km/h
170 26-02-2003 15:32:10 7.8 C 3.67 g/m*3 7.8 C 0 km/h
171 26-02-2003 15:34:10 8 C 3.64 g/m*3 8 C 0 km/h
172 26-02-2003 15:38:10 8 C 3.64 g/m*3 8 C 0 km/h
173 26-02-2003 15:40:10 8.4 C 3.65 g/m*3 8.4 C 0 km/h
174 26-02-2003 15:44:10 8.4 C 3.65 g/m*3 8.4 C 0 km/h
175 26-02-2003 15:46:10 8.3 C 3.62 g/m*3 8.3 C 0 km/h
Sensor: Nr:Datum:Temp:Abs-Feuchte:Windchill:Wind:
Aussen-T/F 176 26-02-2003 15:50:10 8.3 C 3.62 g/m*3 8.3 C 0 km/h
177 26-02-2003 15:52:10 8.2 C 3.6 g/m*3 8.2 C 0 km/h
178 26-02-2003 15:56:10 8.2 C 3.6 g/m*3 8.2 C 0 km/h
179 26-02-2003 15:58:10 8.1 C 3.58 g/m*3 8.1 C 0 km/h
180 26-02-2003 16:02:10 8.1 C 3.58 g/m*3 8.1 C 0 km/h
181 26-02-2003 16:10:10 8 C 3.55 g/m*3 8 C 0 km/h
182 26-02-2003 16:14:10 8 C 3.55 g/m*3 8 C 0 km/h
183 26-02-2003 16:16:10 7.9 C 3.61 g/m*3 7.9 C 0 km/h
184 26-02-2003 16:20:10 7.9 C 3.61 g/m*3 7.9 C 0 km/h
185 26-02-2003 16:22:10 8.1 C 3.66 g/m*3 8.1 C 0 km/h
186 26-02-2003 16:26:10 8.1 C 3.66 g/m*3 8.1 C 0 km/h
187 26-02-2003 16:28:10 8 C 3.64 g/m*3 8 C 0 km/h
188 26-02-2003 16:32:10 8 C 3.64 g/m*3 8 C 0 km/h
189 26-02-2003 16:34:10 7.9 C 3.7 g/m*3 7.9 C 0 km/h
190 26-02-2003 16:38:10 7.9 C 3.7 g/m*3 7.9 C 0 km/h
191 26-02-2003 16:40:10 7.9 C 3.7 g/m*3 7.9 C 0 km/h
192 26-02-2003 16:44:10 7.9 C 3.7 g/m*3 7.9 C 0 km/h
193 26-02-2003 16:46:10 7.9 C 3.7 g/m*3 7.9 C 0 km/h
194 26-02-2003 16:50:10 7.9 C 3.7 g/m*3 7.9 C 0 km/h
195 26-02-2003 16:52:10 8.1 C 3.74 g/m*3 8.1 C 0 km/h
196 26-02-2003 16:56:10 8.1 C 3.74 g/m*3 8.1 C 0 km/h
197 26-02-2003 16:58:10 8.4 C 3.82 g/m*3 8.4 C 0 km/h
198 26-02-2003 17:02:10 8.4 C 3.82 g/m*3 8.4 C 0 km/h
199 26-02-2003 17:04:10 8.5 C 3.93 g/m*3 8.5 C 0 km/h
200 26-02-2003 17:08:10 8.5 C 3.93 g/m*3 8.5 C 0 km/h
Sensor: Nr:Datum:Temp:Abs-Feuchte:Windchill:Wind:
Aussen-T/F 201 26-02-2003 17:10:10 8.4 C 3.9 g/m*3 8.4 C 0 km/h
202 26-02-2003 17:14:10 8.4 C 3.9 g/m*3 8.4 C 0 km/h
203 26-02-2003 17:16:10 8.2 C 3.85 g/m*3 8.2 C 0 km/h
204 26-02-2003 17:20:10 8.2 C 3.85 g/m*3 8.2 C 0 km/h
205 26-02-2003 17:22:10 7.8 C 3.67 g/m*3 7.8 C 0 km/h
206 26-02-2003 17:26:10 7.8 C 3.67 g/m*3 7.8 C 0 km/h
207 26-02-2003 17:28:10 7.5 C 3.6 g/m*3 7.5 C 0 km/h
208 26-02-2003 17:32:10 7.5 C 3.6 g/m*3 7.5 C 0 km/h
209 26-02-2003 17:34:10 7.2 C 3.61 g/m*3 7.2 C 0 km/h
210 26-02-2003 17:38:10 7.2 C 3.61 g/m*3 7.2 C 0 km/h
211 26-02-2003 17:40:10 6.8 C 3.75 g/m*3 6.8 C 0 km/h
212 26-02-2003 17:44:10 6.8 C 3.75 g/m*3 6.8 C 0 km/h
213 26-02-2003 17:46:10 6.6 C 3.7 g/m*3 6.6 C 0 km/h
214 26-02-2003 17:50:10 6.6 C 3.7 g/m*3 6.6 C 0 km/h
215 26-02-2003 17:52:10 6.4 C 3.73 g/m*3 6.4 C 0 km/h
216 26-02-2003 17:56:10 6.4 C 3.73 g/m*3 6.4 C 0 km/h
217 26-02-2003 17:58:10 6.2 C 3.75 g/m*3 6.2 C 0 km/h
218 26-02-2003 18:02:10 6.2 C 3.75 g/m*3 6.2 C 0 km/h
219 26-02-2003 18:04:10 5.9 C 3.68 g/m*3 5.9 C 0 km/h
220 26-02-2003 18:08:10 5.9 C 3.68 g/m*3 5.9 C 0 km/h
221 26-02-2003 18:10:10 5.8 C 3.65 g/m*3 5.8 C 0 km/h
222 26-02-2003 18:14:10 5.8 C 3.65 g/m*3 5.8 C 0 km/h
223 26-02-2003 18:16:10 5.6 C 3.68 g/m*3 5.6 C 0 km/h
224 26-02-2003 18:20:10 5.6 C 3.68 g/m*3 5.6 C 0 km/h
225 26-02-2003 18:22:10 5.4 C 3.63 g/m*3 5.4 C 0 km/h
Sensor: Nr:Datum:Temp:Abs-Feuchte:Windchill:Wind:
Aussen-T/F 226 26-02-2003 18:26:10 5.4 C 3.63 g/m*3 5.4 C 0 km/h
227 26-02-2003 18:28:10 5.4 C 3.7 g/m*3 5.4 C 0 km/h
228 26-02-2003 18:32:10 5.4 C 3.7 g/m*3 5.4 C 0 km/h
229 26-02-2003 18:34:10 5.2 C 3.72 g/m*3 5.2 C 0 km/h
230 26-02-2003 18:38:10 5.2 C 3.72 g/m*3 5.2 C 0 km/h
231 26-02-2003 18:40:10 5.1 C 3.69 g/m*3 5.1 C 0 km/h
232 26-02-2003 18:44:10 5.1 C 3.69 g/m*3 5.1 C 0 km/h
233 26-02-2003 18:46:10 5 C 3.74 g/m*3 5 C 0 km/h
234 26-02-2003 18:50:10 5 C 3.74 g/m*3 5 C 0 km/h
235 26-02-2003 18:52:10 4.9 C 3.78 g/m*3 4.9 C 0 km/h
236 26-02-2003 18:56:10 4.9 C 3.78 g/m*3 4.9 C 0 km/h
237 26-02-2003 18:58:10 4.8 C 3.76 g/m*3 4.8 C 0 km/h
238 26-02-2003 19:02:10 4.8 C 3.76 g/m*3 4.8 C 0 km/h
239 26-02-2003 19:04:10 4.7 C 3.73 g/m*3 4.7 C 0 km/h
240 26-02-2003 19:08:10 4.7 C 3.73 g/m*3 4.7 C 0 km/h
241 26-02-2003 19:10:10 4.5 C 3.75 g/m*3 4.5 C 0 km/h
242 26-02-2003 19:14:10 4.5 C 3.75 g/m*3 4.5 C 0 km/h
243 26-02-2003 19:16:10 4.4 C 3.72 g/m*3 4.4 C 0 km/h
244 26-02-2003 19:20:10 4.4 C 3.72 g/m*3 4.4 C 0 km/h
245 26-02-2003 19:22:10 4.2 C 3.67 g/m*3 4.2 C 0 km/h
246 26-02-2003 19:26:10 4.2 C 3.67 g/m*3 4.2 C 0 km/h
247 26-02-2003 19:28:10 4.1 C 3.65 g/m*3 4.1 C 0 km/h
248 26-02-2003 19:32:10 4.1 C 3.65 g/m*3 4.1 C 0 km/h
249 26-02-2003 19:34:10 3.8 C 3.64 g/m*3 3.8 C 0 km/h
250 26-02-2003 19:38:10 3.8 C 3.64 g/m*3 3.8 C 0 km/h
Sensor: Nr:Datum:Temp:Abs-Feuchte:Windchill:Wind:
Aussen-T/F 251 26-02-2003 19:40:10 3.8 C 3.64 g/m*3 3.8 C 0 km/h
252 26-02-2003 19:44:10 3.8 C 3.64 g/m*3 3.8 C 0 km/h
253 26-02-2003 19:46:10 3.5 C 3.63 g/m*3 3.5 C 0 km/h
254 26-02-2003 19:50:10 3.5 C 3.63 g/m*3 3.5 C 0 km/h
255 26-02-2003 19:52:10 3.3 C 3.58 g/m*3 3.3 C 0 km/h
256 26-02-2003 19:56:10 3.3 C 3.58 g/m*3 3.3 C 0 km/h
257 26-02-2003 19:58:10 3.1 C 3.59 g/m*3 3.1 C 0 km/h
258 26-02-2003 20:02:10 3.1 C 3.59 g/m*3 3.1 C 0 km/h
259 26-02-2003 20:05:11 3.1 C 3.59 g/m*3 3.1 C 0 km/h
260 26-02-2003 20:08:10 3.1 C 3.59 g/m*3 3.1 C 0 km/h
261 26-02-2003 20:11:11 3 C 3.57 g/m*3 3 C 0 km/h
262 26-02-2003 20:14:10 3 C 3.57 g/m*3 3 C 0 km/h
263 26-02-2003 20:17:11 2.8 C 3.64 g/m*3 2.8 C 0 km/h
264 26-02-2003 20:20:10 2.8 C 3.64 g/m*3 2.8 C 0 km/h
265 26-02-2003 20:23:11 2.7 C 3.61 g/m*3 2.7 C 0 km/h
266 26-02-2003 20:26:10 2.7 C 3.61 g/m*3 2.7 C 0 km/h
267 26-02-2003 20:29:11 2.7 C 3.61 g/m*3 2.7 C 0 km/h
268 26-02-2003 20:32:10 2.7 C 3.61 g/m*3 2.7 C 0 km/h
269 26-02-2003 20:35:11 2.6 C 3.59 g/m*3 2.6 C 0 km/h
270 26-02-2003 20:38:10 2.6 C 3.59 g/m*3 2.6 C 0 km/h
271 26-02-2003 20:41:11 2.4 C 3.6 g/m*3 2.4 C 0 km/h
272 26-02-2003 20:44:10 2.4 C 3.6 g/m*3 2.4 C 0 km/h
273 26-02-2003 20:47:11 2.3 C 3.57 g/m*3 2.3 C 0 km/h
274 26-02-2003 20:50:10 2.3 C 3.57 g/m*3 2.3 C 0 km/h
275 26-02-2003 20:53:11 2.3 C 3.63 g/m*3 2.3 C 0 km/h
Sensor: Nr:Datum:Temp:Abs-Feuchte:Windchill:Wind:
Aussen-T/F 276 26-02-2003 20:56:10 2.3 C 3.63 g/m*3 2.3 C 0 km/h
277 26-02-2003 20:59:11 2.2 C 3.55 g/m*3 2.2 C 0 km/h
278 26-02-2003 21:02:10 2.2 C 3.55 g/m*3 2.2 C 0 km/h
279 26-02-2003 21:05:11 2.2 C 3.6 g/m*3 2.2 C 0 km/h
280 26-02-2003 21:08:10 2.2 C 3.6 g/m*3 2.2 C 0 km/h
281 26-02-2003 21:11:11 2.2 C 3.6 g/m*3 2.2 C 0 km/h
282 26-02-2003 21:14:10 2.2 C 3.6 g/m*3 2.2 C 0 km/h
283 26-02-2003 21:17:11 2.2 C 3.6 g/m*3 2.2 C 0 km/h
284 26-02-2003 21:20:10 2.2 C 3.6 g/m*3 2.2 C 0 km/h
285 26-02-2003 21:23:11 2.2 C 3.6 g/m*3 2.2 C 0 km/h
286 26-02-2003 21:26:10 2.2 C 3.6 g/m*3 2.2 C 0 km/h
287 26-02-2003 21:29:11 2.3 C 3.63 g/m*3 2.3 C 0 km/h
288 26-02-2003 21:32:10 2.3 C 3.63 g/m*3 2.3 C 0 km/h
289 26-02-2003 21:35:11 2.4 C 3.65 g/m*3 2.4 C 0 km/h
290 26-02-2003 21:38:10 2.4 C 3.65 g/m*3 2.4 C 0 km/h
291 26-02-2003 21:41:11 2.4 C 3.65 g/m*3 2.4 C 0 km/h
292 26-02-2003 21:44:10 2.4 C 3.65 g/m*3 2.4 C 0 km/h
293 26-02-2003 21:47:11 2.4 C 3.65 g/m*3 2.4 C 0 km/h
294 26-02-2003 21:50:10 2.4 C 3.65 g/m*3 2.4 C 0 km/h
295 26-02-2003 21:53:11 2.4 C 3.65 g/m*3 2.4 C 0 km/h
296 26-02-2003 21:56:10 2.4 C 3.65 g/m*3 2.4 C 0 km/h
297 26-02-2003 21:59:11 2.4 C 3.65 g/m*3 2.4 C 0 km/h
298 26-02-2003 22:02:10 2.4 C 3.65 g/m*3 2.4 C 0 km/h
299 26-02-2003 22:05:11 2.4 C 3.65 g/m*3 2.4 C 0 km/h
300 26-02-2003 22:08:10 2.4 C 3.65 g/m*3 2.4 C 0 km/h
Sensor: Nr:Datum:Temp:Abs-Feuchte:Windchill:Wind:
Aussen-T/F 301 26-02-2003 22:11:11 2.4 C 3.65 g/m*3 2.4 C 0 km/h
302 26-02-2003 22:14:10 2.4 C 3.65 g/m*3 2.4 C 0 km/h
303 26-02-2003 22:17:11 2.4 C 3.65 g/m*3 2.4 C 0 km/h
304 26-02-2003 22:20:10 2.4 C 3.65 g/m*3 2.4 C 0 km/h
305 26-02-2003 22:23:11 2.4 C 3.65 g/m*3 2.4 C 0 km/h
306 26-02-2003 22:26:10 2.4 C 3.65 g/m*3 2.4 C 0 km/h
307 26-02-2003 22:29:11 2.4 C 3.71 g/m*3 2.4 C 0 km/h
308 26-02-2003 22:32:10 2.4 C 3.71 g/m*3 2.4 C 0 km/h
309 26-02-2003 22:35:11 2.3 C 3.69 g/m*3 2.3 C 0 km/h
310 26-02-2003 22:38:10 2.3 C 3.69 g/m*3 2.3 C 0 km/h
311 26-02-2003 22:41:11 2.3 C 3.69 g/m*3 2.3 C 0 km/h
312 26-02-2003 22:44:10 2.3 C 3.69 g/m*3 2.3 C 0 km/h
313 26-02-2003 22:47:11 2.3 C 3.69 g/m*3 2.3 C 0 km/h
314 26-02-2003 22:50:10 2.3 C 3.69 g/m*3 2.3 C 0 km/h
315 26-02-2003 22:53:11 2.2 C 3.66 g/m*3 2.2 C 0 km/h
316 26-02-2003 22:56:10 2.2 C 3.66 g/m*3 2.2 C 0 km/h
317 26-02-2003 22:59:11 2.2 C 3.66 g/m*3 2.2 C 0 km/h
318 26-02-2003 23:02:10 2.2 C 3.66 g/m*3 2.2 C 0 km/h
319 26-02-2003 23:05:11 2.2 C 3.66 g/m*3 2.2 C 0 km/h
320 26-02-2003 23:08:10 2.2 C 3.66 g/m*3 2.2 C 0 km/h
321 26-02-2003 23:11:11 2.3 C 3.69 g/m*3 2.3 C 0 km/h
322 26-02-2003 23:14:10 2.3 C 3.69 g/m*3 2.3 C 0 km/h
323 26-02-2003 23:17:11 2.2 C 3.66 g/m*3 2.2 C 0 km/h
324 26-02-2003 23:20:10 2.2 C 3.66 g/m*3 2.2 C 0 km/h
325 26-02-2003 23:23:11 2.1 C 3.64 g/m*3 2.1 C 0 km/h
Sensor: Nr:Datum:Temp:Abs-Feuchte:Windchill:Wind:
Aussen-T/F 326 26-02-2003 23:26:10 2.1 C 3.64 g/m*3 2.1 C 0 km/h
327 26-02-2003 23:29:11 2 C 3.61 g/m*3 2 C 0 km/h
328 26-02-2003 23:32:10 2 C 3.61 g/m*3 2 C 0 km/h
329 26-02-2003 23:35:11 2 C 3.67 g/m*3 2 C 0 km/h
330 26-02-2003 23:38:10 2 C 3.67 g/m*3 2 C 0 km/h
331 26-02-2003 23:41:11 1.9 C 3.7 g/m*3 1.9 C 0 km/h
332 26-02-2003 23:44:10 1.9 C 3.7 g/m*3 1.9 C 0 km/h
333 26-02-2003 23:47:11 1.9 C 3.7 g/m*3 1.9 C 0 km/h
334 26-02-2003 23:50:10 1.9 C 3.7 g/m*3 1.9 C 0 km/h
335 26-02-2003 23:53:11 1.9 C 3.7 g/m*3 1.9 C 0 km/h
336 26-02-2003 23:56:10 1.9 C 3.7 g/m*3 1.9 C 0 km/h
337 26-02-2003 23:59:11 1.7 C 3.65 g/m*3 1.7 C 0 km/h

Legende:
   Min
   Max


Maximal/Minimal-Werte vom 23.02.2003 - 30.09.2000

Sensor Min Max Avg
Temp
(Aussen-T/F)
°C
-- 
°C 0 °C

Die Daten stammen von einer Davis Vantage Pro 2 Wetter-Station und werden unter Linux mit der Software wview2wettercgi und aufbereitet. Alle Angaben erfolgen ohne Gewähr für ihre Vollständigkeit oder Richtigkeit.
Kontakt: Rainer Krienke krienke@uni-koblenz.de . Meine Webseiten an der Uni Koblenz oder privat.
Version: $Revision: 0.78 $